Tracking 35275 objects as of 8-Sep-2026
HD Live streaming from Space Station
objects crossing your sky now

SL-12 R/B(AUX MOTOR)


SL-12 R/B(AUX MOTOR) is no longer on orbit


NORAD ID: 27447
Int'l Code: 2002-029E
Launch date: June 10, 2002
Source: Commonwealth of Independent States (former USSR) (CIS)
Launch site: TYURATAM MISSILE AND SPACE COMPLEX (TTMTR)
Decay date: 2003-08-24

Note: This is a ROCKET BODY
Your satellite tracking list
Your tracking list is empty




NASA's NSSDC Master Catalog

Two Line Element Set (TLE):
1 27447U 02029E   03236.45328335  .99999999  13732-4  11221-2 0  9995
2 27447 046.3045 257.5192 0239728 025.3492 336.4431 16.04567672 20263
Source of the keplerian elements: AFSPC